Location: ??????
(55.7522°N, 37.6156°E)
Time: 17:57:34
(UTC+00:00)

Cosmos 2251 Rocket - Pass Details

Date: 14 June 2025
Orbit: 761 x 788 km, 74.0° (Epoch: 12 July)

Event Time Altitude Azimuth Distance (km) Brightness Sun altitude
Exits shadow 21:18:42 12° 200° (SSW) 2,189 5.3 -10.9°
Maximum altitude 21:23:38 79° 115° (ESE) 808 3.6 -10.9°
Drops below altitude 10° 21:29:01 10° 30° (NNE) 2,363 7.0 -10.9°
Sets 21:31:25 0° 29° (NNE) 3,297 8.0 -10.9°
